Back to catalog

THOR ABLESTAR DEB

AliveLEO
NORAD 177·DEBRIS·🇺🇸 United States

Launched Jun 29, 1961 from Cape Canaveral Space Force Station

Loading…

Next Passes (next 24 hours)

TLE

FreshSource: Space-Track

Epoch: Sep 7, 2026, 13:02 UTC

1 00177U 61015BB  26250.54320726  .00000238  00000-0  15765-3 0  9992
2 00177  66.6550 352.4226 0103419  30.6219 330.0851 14.14887620352818

Track THOR ABLESTAR DEB in real time with AllMySat

Download on the App Store